Regional Weather Roundup
Issued by NWS Portland, ME

Home | Current Version | Previous Version | Text Only | Print | Product List | Glossary On
Versions: 1 2 3 4 5 6 7 8 9 10 11 12 13 14 15 16 17 18 19 20 21 22 23 24 25 26 27 28 29 30 31 32 33 34 35 36 37 38 39 40 41 42 43 44 45 46 47 48 49 50
000
ASUS41 KGYX 300105
RWRGYX
WEATHER ROUNDUP FOR MAINE AND NEW HAMPSHIRE
NATIONAL WEATHER SERVICE GRAY ME
900 PM EDT FRI AUG 29 2014

MEZ002-005-006-010-012-015-018-020-021-024-026-027-029-300200-
MAINE

CITY           SKY/WX    TMP DP  RH WIND       PRES   REMARKS
PORTLAND       CLEAR     58  48  69 SW5       30.25R
SANFORD        PTCLDY    54  46  76 CALM      30.26R
BAR HARBOR     CLEAR     57  48  72 CALM      30.22R
WISCASSET      CLEAR     54  51  90 CALM      30.26R
ROCKLAND       CLEAR     54  48  82 CALM      30.23R
FRYEBURG       PTCLDY    56  54  93 CALM      30.24R
LEWISTONAUBURN CLEAR     57  52  82 S3        30.24S
AUGUSTA        CLEAR     57  52  83 SW6       30.24R
WATERVILLE     CLEAR     57  48  72 SW3       30.20R
BANGOR         PTCLDY    57  49  74 SW3       30.22R
GREENVILLE       N/A     54  46  74 CALM      30.21R
MILLINOCKET    CLEAR     57  49  74 CALM      30.21R
HOULTON        CLEAR     51  48  89 S5        30.18S
PRESQUE ISLE   CLEAR     54  45  71 CALM      30.17S
FRENCHVILLE    PTCLDY    60  43  53 CALM      30.17S
CARIBOU        CLEAR     57  48  72 CALM      30.17R
$$

NHZ002-005-008-009-011-012-014-300200-
NEW HAMPSHIRE

CITY           SKY/WX    TMP DP  RH WIND       PRES   REMARKS
PORTSMOUTH     MOCLDY    59  53  81 S3        30.24R
ROCHESTER      PTCLDY    59  52  77 CALM      30.25R
NASHUA         PTCLDY    64  55  72 SE6       30.25R
MANCHESTER     MOCLDY    63  56  78 SE3       30.23R
CONCORD        MOCLDY    59  55  87 SE5       30.24R
LACONIA        MOCLDY    63  55  77 CALM      30.22R
PLYMOUTH       FAIR      59  59 100 CALM      30.22R
BERLIN         PTCLDY    53  51  93 CALM      30.21S
WHITEFIELD     MOCLDY    63  56  78 CALM      30.21R
JAFFREY        PTCLDY    62  56  80 S3        30.26R
LEBANON        PTCLDY    58  54  86 S3        30.21R
MT WASHINGTON  FOG       45  45 100 SW13        N/A  VSB 1/16
$$

VTZ005-007-008-300200-
VERMONT

CITY           SKY/WX    TMP DP  RH WIND       PRES   REMARKS
ST JOHNSBURY     N/A     62  56  80 MISG      30.19R
MONTPELIER     CLEAR     58  53  84 CALM      30.25R
BURLINGTON     PTCLDY    63  56  78 S3        30.18R
$$

MAZ007-012-024-CTZ003-RIZ002-NYZ038-NYZ072-300200-
SOUTHERN NEW ENGLAND AND NY

CITY           SKY/WX    TMP DP  RH WIND       PRES   REMARKS
BOSTON         PTCLDY    63  54  72 SE10      30.25R
WORCESTER      CLEAR     63  55  75 S6        30.26R
NANTUCKET      CLEAR     58  52  80 E6        30.26R
PROVIDENCE     PTCLDY    64  54  69 SE3       30.26R
HARTFORD       PTCLDY    67  54  63 S10       30.22R
ALBANY         PTCLDY    64  55  72 CALM      30.20R
NEW YORK CITY  MOCLDY    70  54  56 SE12      30.22R
$$

ANZ081-ANZ082-ANZ150-NHZ014-MEZ023>029-300200-
COASTAL MARINE OBSERVATIONS

STATION/POSITION TIME  TEMP    WIND        PRES    WAVE
                       AIR SEA DIR/SP/G            HT/PER
                 (UTC) (F)     (DEG/KT/KT) (MB)    (FT/S)
MATINICUS ROCK   0000          260/ 12/ 13 1023.1R
PORTLAND WX BUOY 0050   62 62  200/ 10/ 12 1024.2R   2/12
WELLS            0000   61 62  260/  1/  4 1023.2R
ISLE OF SHOALS   0000   62     160/ 12/ 12 1023.5R
JEFFREYS LEDGE   0021      65                N/A     3/13
CASHES LEDGE BUO 0050   63 66              1023.9R   3/11
$$

.............KEY..............
   WCI - WIND CHILL
   TC  - TEMPERATURE IN CELSIUS
   VSB - VISIBILITY IN MILES
   HX  - HEAT INDEX
   FAIR- INDICATES FEW OR NO CLOUDS BELOW 12,000 FT, WITH NO
         SIGNIFICANT WEATHER AND/OR OBSTRUCTIONS TO VISIBILITY.




USA.gov is the U.S. government's official web portal to all federal, state and local government web resources and services.